DW5656 Weather Reports


time (UTC)temp
C
wind
direction
speed
KPH
gust
KPH
rain 1hr
cm
rain 24hr
cm
rain mn
cm
humidity
%
barometer
mb
20260502164119 22 258 8.0 19.3 0.00 0.00 0.00 70 1015.1
20260502163218 22 254 11.3 20.9 0.00 0.00 0.00 71 1015.2
20260502162319 22 264 9.7 22.5 0.00 0.00 0.00 70 1015.3
20260502161418 22 275 6.4 17.7 0.00 0.00 0.00 70 1015.2
20260502160519 22 302 3.2 16.1 0.00 0.00 0.00 69 1015.1
20260502152018 22 316 6.4 14.5 0.00 0.00 0.00 69 1015.6
20260502151118 22 279 6.4 17.7 0.00 0.00 0.00 70 1015.9
20260502150240 22 288 6.4 14.5 0.00 0.00 0.00 70 1015.8
20260502130540 23 237 3.2 6.4 0.00 0.00 0.00 61 1016.8
20260502122918 22 262 0.0 12.9 0.00 0.00 0.00 63 1017.2
20260502122018 22 306 0.0 1.6 0.00 0.00 0.00 63 1017.3
20260502121139 22 177 0.0 4.8 0.00 0.00 0.00 64 1017.4
20260502120218 22 271 0.0 11.3 0.00 0.00 0.00 63 1017.3
20260502115318 22 126 0.0 1.6 0.00 0.00 0.00 63 1017.3
20260502114439 22 109 0.0 1.6 0.00 0.00 0.00 63 1017.3
20260502113518 22 192 0.0 3.2 0.00 0.00 0.00 63 1017.4
20260502112618 22 259 0.0 3.2 0.00 0.00 0.00 63 1017.3
20260502111718 22 277 0.0 3.2 0.00 0.00 0.00 64 1017.4
20260502110818 22 275 0.0 3.2 0.00 0.00 0.00 64 1017.6
20260502105918 22 234 0.0 1.6 0.00 0.00 0.00 64 1017.7
20260502105018 22 129 0.0 4.8 0.00 0.00 0.00 64 1018.0
20260502104118 22 131 0.0 4.8 0.00 0.00 0.00 64 1018.0
20260502103218 21 0 0.0 0.0 0.00 0.00 0.00 66 1018.1
20260502102318 21 0 0.0 0.0 0.00 0.00 0.00 65 1018.1
20260502101417 21 0 0.0 0.0 0.00 0.00 0.00 67 1018.1
20260502100518 20 266 0.0 6.4 0.00 0.00 0.00 68 1018.4
20260502091138 20 0 0.0 0.0 0.00 0.00 0.00 67 1018.1
20260502090218 19 25 0.0 6.4 0.00 0.00 0.00 68 1018.1
20260502071417 17 0 0.0 0.0 0.00 0.00 0.00 72 1017.9
20260502070517 18 0 0.0 0.0 0.00 0.00 0.00 72 1017.8
20260502065617 18 0 0.0 0.0 0.00 0.00 0.00 72 1017.8
20260502064717 18 0 0.0 0.0 0.00 0.00 0.00 71 1017.7
20260502063817 17 0 0.0 0.0 0.00 0.00 0.00 71 1017.6
20260502062917 17 0 0.0 0.0 0.00 0.00 0.00 71 1017.8
20260502062017 17 0 0.0 0.0 0.00 0.00 0.00 71 1017.7
20260502061117 17 0 0.0 0.0 0.00 0.00 0.00 71 1017.6
20260502060217 17 0 0.0 0.0 0.00 0.00 0.00 72 1017.7
20260502055338 17 0 0.0 0.0 0.00 0.00 0.00 72 1017.4
20260502054417 17 0 0.0 0.0 0.00 0.00 0.00 72 1017.4
20260502053517 17 336 0.0 4.8 0.00 0.00 0.00 72 1017.4
20260502052617 18 0 0.0 0.0 0.00 0.00 0.00 71 1017.2
20260502051717 17 0 0.0 0.0 0.00 0.00 0.00 72 1017.1
20260502050838 17 0 0.0 0.0 0.00 0.00 0.00 71 1017.2
20260502045938 17 0 0.0 0.0 0.00 0.00 0.00 72 1017.2
20260502045016 17 0 0.0 0.0 0.00 0.00 0.00 72 1017.3
20260502044117 17 0 0.0 0.0 0.00 0.00 0.00 72 1017.3
20260502043216 17 337 0.0 3.2 0.00 0.00 0.00 72 1017.4
20260502042316 17 0 0.0 0.0 0.00 0.00 0.00 73 1017.4
20260502041438 17 0 0.0 0.0 0.00 0.00 0.00 73 1017.4
20260502040516 17 336 0.0 1.6 0.00 0.00 0.00 72 1017.3
20260502035616 17 0 0.0 0.0 0.00 0.00 0.00 72 1017.4
20260502034716 17 0 0.0 0.0 0.00 0.00 0.00 72 1017.5
20260502033816 17 313 0.0 4.8 0.00 0.00 0.00 71 1017.6
20260502032916 18 313 0.0 1.6 0.00 0.00 0.00 72 1017.6
20260502032037 18 0 0.0 0.0 0.00 0.00 0.00 71 1017.6
20260502031116 18 300 0.0 1.6 0.00 0.00 0.00 70 1017.5
20260502030216 18 300 0.0 3.2 0.00 0.00 0.00 70 1017.7
20260502025316 18 0 0.0 0.0 0.00 0.00 0.00 71 1017.6
20260502024416 18 0 0.0 0.0 0.00 0.00 0.00 70 1017.7
20260502023516 18 0 0.0 0.0 0.00 0.00 0.00 69 1017.6
20260502022616 18 300 0.0 1.6 0.00 0.00 0.00 68 1017.7
20260502021716 18 0 0.0 0.0 0.00 0.00 0.00 68 1017.6
20260502020816 18 300 0.0 1.6 0.00 0.00 0.00 67 1017.7
20260502015937 18 0 0.0 0.0 0.00 0.00 0.00 67 1017.8
20260502015016 18 300 0.0 1.6 0.00 0.00 0.00 67 1017.9
20260502014116 18 0 0.0 0.0 0.00 0.00 0.00 67 1017.9
20260502013216 18 300 0.0 1.6 0.00 0.00 0.00 67 1018.0
20260502012316 18 300 0.0 1.6 0.00 0.00 0.00 67 1018.2
20260502011437 18 300 0.0 1.6 0.00 0.00 0.00 67 1018.1
20260502010516 18 0 0.0 0.0 0.00 0.00 0.00 67 1018.4
20260502005616 18 300 0.0 1.6 0.00 0.00 0.00 67 1018.4
20260502004716 18 300 0.0 3.2 0.00 0.00 0.00 68 1018.6
20260502003816 18 300 0.0 1.6 0.00 0.00 0.00 68 1018.7
20260502002916 18 308 0.0 3.2 0.00 0.00 0.00 68 1018.8
20260502002016 18 315 0.0 3.2 0.00 0.00 0.00 68 1019.0
20260502001116 18 315 0.0 3.2 0.00 0.00 0.00 68 1019.0
20260502000237 18 316 0.0 1.6 0.00 0.00 0.00 68 1018.9
20260501235316 18 316 3.2 8.0 0.00 0.00 0.00 69 1018.9
20260501234416 18 303 0.0 8.0 0.00 0.00 0.00 68 1019.2
20260501233537 18 252 0.0 3.2 0.00 0.00 0.00 69 1019.3
20260501232616 18 252 0.0 1.6 0.00 0.00 0.00 69 1019.2
20260501231716 18 252 0.0 3.2 0.00 0.00 0.00 69 1019.3
20260501230816 18 249 0.0 4.8 0.00 0.00 0.00 69 1019.3
20260501225937 18 248 1.6 6.4 0.00 0.00 0.00 68 1019.0
20260501225016 18 248 1.6 8.0 0.00 0.00 0.00 68 1019.2
20260501224115 18 246 1.6 6.4 0.00 0.00 0.00 68 1019.1
20260501223216 18 247 1.6 4.8 0.00 0.00 0.00 67 1019.0
20260501222316 19 251 1.6 4.8 0.00 0.00 0.00 67 1019.0
20260501221416 19 262 1.6 6.4 0.00 0.00 0.00 66 1018.9
20260501220515 19 244 1.6 9.7 0.00 0.00 0.00 66 1018.8
20260501215615 19 231 1.6 6.4 0.00 0.00 0.00 65 1018.6
20260501214715 20 228 1.6 4.8 0.00 0.00 0.00 65 1018.7
20260501213836 20 241 3.2 6.4 0.00 0.00 0.00 64 1018.9
20260501212915 20 241 1.6 8.0 0.00 0.00 0.00 63 1018.8
20260501212015 20 236 3.2 8.0 0.00 0.00 0.00 62 1018.8
20260501211115 20 239 3.2 9.7 0.00 0.00 0.00 61 1018.7
20260501210236 20 233 3.2 8.0 0.00 0.00 0.00 60 1018.8
20260501205315 21 240 1.6 8.0 0.00 0.00 0.00 59 1018.7
20260501204415 21 238 1.6 4.8 0.00 0.00 0.00 58 1018.5
20260501203515 21 224 3.2 8.0 0.00 0.00 0.00 58 1018.4
20260501202616 21 231 3.2 8.0 0.00 0.00 0.00 57 1018.3
20260501201715 21 251 3.2 8.0 0.00 0.00 0.00 56 1018.3
20260501200815 21 238 3.2 6.4 0.00 0.00 0.00 55 1018.2
20260501195915 21 259 3.2 9.7 0.00 0.00 0.00 55 1018.2
20260501195036 21 259 4.8 9.7 0.00 0.00 0.00 54 1018.0
20260501194115 21 244 4.8 12.9 0.00 0.00 0.00 54 1017.8
20260501193215 22 233 4.8 11.3 0.00 0.00 0.00 53 1017.8
20260501192336 22 239 4.8 12.9 0.00 0.00 0.00 53 1017.6
20260501191415 22 241 4.8 11.3 0.00 0.00 0.00 53 1017.5
20260501190515 22 242 6.4 12.9 0.00 0.00 0.00 52 1017.5
20260501185615 22 248 6.4 14.5 0.00 0.00 0.00 52 1017.4
20260501184715 22 257 6.4 14.5 0.00 0.00 0.00 52 1017.4
20260501183815 22 251 8.0 17.7 0.00 0.00 0.00 51 1017.4
20260501182915 23 240 9.7 19.3 0.00 0.00 0.00 51 1017.4
20260501182015 23 242 8.0 19.3 0.00 0.00 0.00 50 1017.3
20260501181115 23 239 8.0 17.7 0.00 0.00 0.00 51 1017.3
20260501180215 23 254 8.0 17.7 0.00 0.00 0.00 50 1017.3
20260501175315 24 250 6.4 17.7 0.00 0.00 0.00 49 1017.3
20260501174415 24 244 8.0 17.7 0.00 0.00 0.00 49 1017.3
20260501173515 24 225 6.4 17.7 0.00 0.00 0.00 48 1017.2
20260501172615 24 219 8.0 17.7 0.00 0.00 0.00 46 1017.2
20260501171715 25 238 9.7 19.3 0.00 0.00 0.00 45 1017.2
20260501170815 25 242 6.4 20.9 0.00 0.00 0.00 44 1017.2